Theta_e
295 295 297 297 297 296 296 297 297 297 297 297 297 298 298 299 298 298 298 299 299 299 299 299 299 300 300 299 299 299 299 299 299 299 299 299 299 299 299 299 298 298 298 298 298 298 298 298 298 299 299 298 298 298 298 298 298 298 298 298 298 298 298 298 299 299 299 299 300 300 300 300 300 300 300 300 300 300 300 300 300 300 301 301 301 301
295 295 296 296 296 295 295 296 296 297 296 296 296 297 298 298 297 297 297 297 297 297 297 298 298 298 299 298 298 298 298 298 298 298 299 299 299 299 298 298 298 298 298 298 298 298 298 298 298 298 298 298 298 298 297 297 297 297 297 297 297 297 297 297 298 298 298 299 299 299 299 299 299 299 299 299 299 299 299 300 300 300 300 300 301 301
294 294 294 295 295 295 294 295 295 296 296 296 296 296 297 296 296 296 295 296 296 296 296 297 297 297 297 297 297 297 297 298 298 298 298 298 298 298 298 298 298 297 297 298 298 298 298 298 298 298 298 298 297 297 297 296 296 296 296 296 296 296 297 297 297 297 298 298 298 299 299 299 299 299 298 298 299 299 299 299 299 299 300 300 300 301
293 293 293 294 294 294 294 294 295 295 296 296 296 296 297 296 295 295 295 296 296 296 296 296 296 296 296 296 296 296 297 297 297 297 298 298 298 298 298 298 297 297 297 298 298 298 298 298 297 297 297 297 296 296 296 296 296 295 295 295 296 296 296 296 297 297 297 298 298 298 298 298 298 298 298 298 298 298 298 299 299 299 299 299 300 301
293 293 293 293 293 293 294 294 295 295 295 295 296 296 296 295 295 295 295 296 296 296 295 296 295 295 295 295 295 296 296 296 296 296 297 297 297 297 297 297 297 297 297 297 297 298 297 297 296 296 296 296 295 295 295 295 295 295 295 295 295 295 296 296 296 297 297 297 297 297 297 297 297 297 297 297 298 298 298 298 298 298 299 299 299 300
293 293 293 293 293 293 293 293 294 294 294 294 294 295 295 295 295 295 295 295 295 295 295 295 295 295 295 295 295 295 295 295 295 295 295 296 296 296 296 296 296 296 297 297 296 296 296 295 295 295 294 294 294 294 294 294 294 294 294 294 294 295 295 295 296 296 296 297 297 297 297 297 297 297 297 297 297 297 297 297 298 298 298 299 299 299
292 292 293 293 293 293 293 293 293 293 293 293 293 294 294 295 295 295 294 295 295 294 295 294 295 295 295 294 294 294 294 294 294 294 294 294 294 295 295 295 295 295 295 295 294 294 294 294 294 294 294 294 294 294 293 294 293 293 293 294 294 294 294 294 295 295 296 296 296 296 296 296 296 296 296 297 297 297 297 297 297 297 298 298 299 299
291 292 292 292 292 293 293 293 293 293 293 293 293 293 293 294 294 294 294 294 294 294 294 294 294 294 294 294 293 293 293 293 293 293 293 293 293 293 293 293 293 293 293 293 293 293 293 293 293 293 293 293 293 293 293 293 293 293 293 293 293 293 293 294 294 295 295 295 296 296 296 296 296 296 296 296 296 296 296 296 297 297 298 298 298 299
291 291 291 292 292 292 292 292 292 293 293 293 293 292 293 293 293 293 294 294 293 293 293 293 293 293 293 293 293 292 292 293 293 293 293 293 293 293 293 292 292 292 292 292 292 292 292 292 292 292 292 292 292 292 292 292 292 292 292 292 292 292 293 293 293 294 294 295 295 295 295 295 295 295 296 296 295 295 295 296 296 296 297 298 298 299
291 291 291 291 292 292 292 291 292 292 293 293 293 293 293 293 292 292 292 292 293 293 292 292 292 292 292 292 292 292 292 292 292 292 293 292 292 292 292 292 291 291 291 291 291 291 291 291 291 291 291 291 292 292 291 291 291 291 291 292 292 292 292 292 293 293 294 294 294 295 295 295 295 295 295 295 295 295 295 295 295 296 297 297 298 298
291 291 291 291 291 292 292 291 292 292 293 293 293 293 293 293 292 291 291 291 291 291 291 291 290 290 290 290 290 291 290 291 291 291 291 290 290 290 290 290 289 290 289 290 290 290 290 290 290 291 291 291 291 291 291 291 291 291 291 291 291 292 292 292 292 293 293 293 294 294 294 294 294 294 294 295 295 295 295 295 295 296 296 297 297 298
291 291 291 291 291 291 291 291 292 292 292 292 292 292 292 292 292 291 290 290 290 290 290 290 289 289 288 288 288 289 289 289 290 290 291 290 290 290 289 289 289 289 289 289 289 290 290 290 290 290 290 290 290 290 290 290 290 290 290 291 291 291 291 292 292 292 293 293 293 293 293 294 294 294 294 294 295 295 295 295 295 296 296 296 297 297
290 290 290 290 290 290 290 290 291 291 291 291 290 290 290 290 290 290 290 289 289 289 289 289 289 288 287 287 287 287 288 288 288 289 289 289 289 289 289 289 289 289 289 289 289 290 290 290 290 290 290 289 289 289 289 289 289 289 289 290 290 290 291 291 292 292 292 292 293 293 293 293 293 294 294 294 295 295 295 295 296 296 296 296 297 297
289 289 289 289 289 290 290 290 290 289 289 289 289 288 288 288 288 288 289 288 288 288 288 288 288 288 287 286 286 286 287 287 288 288 288 289 289 289 288 288 288 288 289 289 289 289 290 290 290 289 289 289 288 288 288 288 289 289 289 289 290 290 290 291 291 291 292 292 292 293 293 293 293 294 294 294 295 295 295 295 296 296 296 296 296 297
289 289 289 289 289 289 289 289 289 289 288 288 288 288 288 288 288 288 288 288 287 287 287 288 288 288 287 286 286 286 286 287 287 287 287 288 289 289 288 288 288 288 288 288 288 289 290 290 289 288 288 288 288 288 288 288 289 289 289 289 290 290 290 291 291 291 292 292 292 293 293 293 293 294 294 294 295 295 295 295 295 296 296 296 296 296
289 289 289 289 289 288 288 288 288 288 287 287 287 287 287 287 287 287 287 287 287 287 287 287 287 287 287 286 286 286 286 286 286 286 286 287 288 289 288 287 287 287 288 288 288 289 289 289 288 288 287 287 287 287 287 288 289 289 289 290 290 290 291 291 291 292 292 292 292 293 293 293 294 294 294 294 294 294 295 295 295 295 295 295 296 296
288 288 288 288 288 287 287 287 287 287 287 286 286 286 286 286 286 286 286 286 286 286 286 285 285 285 286 286 285 285 286 286 286 286 286 286 288 289 289 288 287 287 287 288 288 288 288 287 287 287 287 287 287 287 288 288 289 289 290 290 290 291 291 291 292 292 292 292 293 293 293 293 293 294 294 294 294 294 294 294 295 295 295 295 295 295
288 287 287 287 287 287 286 286 286 286 286 286 286 285 285 285 285 285 285 285 285 285 285 285 284 284 285 285 285 285 286 286 285 285 285 286 287 288 288 287 287 286 286 286 287 287 287 287 287 287 287 287 287 287 288 288 289 289 290 290 290 291 291 291 291 292 292 292 292 293 293 293 293 293 294 294 294 294 294 294 294 295 295 295 295 295
287 287 287 287 286 286 286 286 286 286 286 286 286 285 285 285 285 285 285 285 285 285 285 284 284 284 284 285 285 285 285 285 285 285 285 285 287 287 287 286 286 285 285 285 286 286 287 287 287 288 287 287 287 287 288 288 288 289 289 290 290 290 291 291 291 292 292 292 293 293 293 293 293 293 293 293 294 294 294 294 294 295 295 295 295 295
287 287 287 287 287 286 286 287 287 287 286 286 286 286 285 285 285 285 285 285 285 285 285 284 284 285 285 285 285 285 285 285 285 284 284 284 285 286 286 285 284 284 284 284 285 286 286 287 287 287 287 287 287 287 287 288 288 289 289 290 290 290 290 291 291 291 292 292 292 293 293 293 293 293 293 293 293 294 294 294 294 294 294 295 295 295
287 287 287 288 287 287 286 287 287 287 287 287 286 285 285 285 285 285 285 284 284 284 284 284 284 285 285 285 285 285 285 285 284 283 283 283 284 285 285 284 283 283 283 284 285 286 286 287 287 287 287 287 287 287 288 288 288 289 289 289 290 290 291 291 291 291 292 292 292 292 293 293 293 293 293 293 293 293 293 294 294 294 294 294 294 294
287 287 287 288 288 287 287 287 287 287 287 287 286 286 285 285 285 285 285 285 284 284 284 284 285 285 285 285 285 286 285 284 284 283 282 281 282 283 284 284 283 283 282 284 285 286 287 286 286 287 287 287 287 287 287 288 288 288 289 289 290 290 290 291 291 291 292 292 292 292 293 293 293 293 293 293 293 293 293 293 294 294 294 294 294 294
288 287 287 288 288 288 287 287 287 288 288 287 287 286 286 286 285 285 285 285 285 284 285 285 285 285 285 285 285 285 285 284 284 283 281 280 281 282 284 284 283 282 282 284 285 286 286 286 286 286 287 287 286 287 287 287 288 288 289 289 290 290 290 291 291 291 292 292 292 292 292 292 293 293 293 293 293 293 293 293 293 293 293 294 294 294
288 288 288 288 288 288 288 288 288 288 288 288 287 287 287 287 286 286 285 285 285 285 285 285 284 284 284 284 284 284 284 284 283 283 281 280 281 282 284 283 283 282 283 284 285 285 285 285 286 286 287 286 286 286 286 287 288 288 289 289 290 290 290 290 291 291 291 291 291 292 292 292 292 292 292 292 292 292 293 293 293 293 293 293 293 293
289 289 288 289 289 289 288 288 288 288 288 288 288 287 287 287 286 285 286 285 285 285 284 284 283 283 284 284 284 284 284 283 283 282 281 281 281 282 284 283 282 282 282 284 285 285 285 285 286 286 287 286 286 286 286 287 288 288 288 289 289 289 289 290 290 290 290 290 290 291 291 291 291 291 291 292 292 292 292 292 292 292 292 292 292 292
289 289 289 289 289 288 288 287 287 287 287 287 287 287 287 286 286 285 285 284 284 284 283 282 282 283 284 283 283 283 283 283 283 282 282 281 281 281 283 283 283 282 282 283 284 284 284 284 285 286 287 286 286 286 286 287 287 287 288 288 288 288 288 288 288 289 289 289 289 290 290 290 290 291 291 291 291 291 291 292 292 292 292 292 292 292
289 288 288 288 287 287 287 287 287 287 286 287 287 287 287 286 285 284 283 284 284 284 283 282 282 282 283 283 283 283 283 283 282 282 282 281 280 281 282 283 283 282 281 282 283 284 284 284 285 286 286 285 285 285 286 286 286 286 286 287 287 287 287 287 288 288 288 288 289 289 289 290 290 290 290 290 291 291 291 291 291 291 291 291 291 292
287 287 287 287 286 286 285 286 286 286 286 286 286 286 286 285 284 283 283 284 284 284 283 282 281 281 282 282 282 283 283 283 283 283 283 281 281 281 282 283 282 282 281 282 283 284 285 284 284 285 285 285 285 285 285 286 286 286 286 286 287 286 287 287 287 287 288 288 288 288 289 289 289 290 290 290 290 290 290 291 291 291 291 291 290 290
286 286 286 285 285 285 285 285 285 285 285 285 286 286 286 285 284 283 283 284 284 283 282 282 281 281 281 281 282 282 282 283 283 283 283 281 281 281 282 282 282 282 281 281 282 283 284 284 284 284 284 284 285 285 286 286 286 286 286 286 286 286 286 286 287 287 287 287 288 288 288 289 289 289 289 289 290 290 290 290 290 290 290 290 290 290
285 285 285 284 284 284 284 284 284 284 284 284 284 284 285 284 284 284 284 284 283 282 281 281 281 281 281 281 280 280 281 282 283 283 282 281 281 281 282 282 282 282 282 281 281 281 283 284 284 284 284 284 285 285 286 286 286 287 287 286 286 286 286 286 286 286 287 287 287 288 288 288 288 289 289 289 289 289 289 289 290 290 289 289 289 289
284 284 284 284 284 284 284 284 284 284 284 284 283 284 284 284 284 283 284 283 283 282 281 281 281 281 281 280 279 279 280 281 282 283 283 281 281 281 282 281 282 282 282 281 280 279 280 282 283 284 284 285 285 285 286 286 286 286 286 286 286 286 286 286 286 286 286 287 287 287 287 288 288 288 288 288 288 288 289 289 289 289 288 288 288 288
283 283 284 284 284 283 283 283 283 283 283 283 283 283 283 283 283 282 283 282 282 282 281 281 280 281 281 280 279 279 280 281 283 283 283 281 281 281 282 281 282 282 283 282 280 279 279 280 282 283 284 285 285 285 286 286 286 286 286 286 286 286 286 286 286 286 286 286 287 287 287 287 287 287 287 288 288 288 288 288 288 288 288 287 287 287
283 283 283 283 283 283 282 282 282 282 282 282 282 282 282 282 282 282 282 282 282 282 281 281 280 280 280 280 280 280 281 282 283 283 283 282 281 281 282 282 282 282 282 282 282 281 280 280 281 282 283 284 284 285 285 286 286 286 286 285 285 285 286 286 286 286 286 286 286 286 287 287 287 287 287 287 287 287 287 287 287 288 288 287 287 286
283 283 283 283 283 282 282 282 281 281 281 281 281 282 281 281 282 282 282 282 282 282 282 281 281 280 280 280 280 280 281 283 283 284 283 282 281 281 282 282 281 281 281 281 281 281 280 280 281 281 282 283 284 285 285 285 286 286 286 285 285 285 285 285 285 285 285 286 286 286 286 286 286 287 286 287 287 287 287 287 287 287 287 287 286 286
282 282 282 282 282 282 281 281 281 281 281 281 281 281 281 281 281 281 281 282 282 282 282 282 282 281 281 280 280 280 281 283 284 284 284 282 282 281 281 281 281 281 281 280 280 280 280 280 281 281 281 281 283 284 285 285 286 286 285 285 285 285 285 285 285 285 285 285 285 285 286 286 286 286 286 286 286 286 286 287 287 287 287 287 287 286
281 281 282 282 281 281 280 280 280 280 281 281 281 281 281 281 281 281 281 281 281 281 282 282 282 282 282 281 281 281 281 283 284 284 284 283 282 281 281 281 281 282 281 280 280 279 279 280 280 280 280 280 281 282 284 285 286 286 285 285 285 285 285 285 285 285 285 285 285 285 285 285 286 286 286 286 286 286 286 287 287 287 287 287 287 287
281 281 281 281 280 280 279 279 279 280 280 280 281 281 281 281 281 281 281 280 280 281 281 281 282 282 283 282 282 282 282 284 284 284 284 284 283 282 281 281 282 282 281 280 280 279 279 279 279 279 280 280 280 282 283 284 285 285 285 285 285 285 286 286 286 285 285 285 285 285 285 285 285 285 286 286 286 286 286 287 287 287 287 287 287 287
280 280 281 280 280 279 279 279 279 279 280 280 280 280 281 280 280 280 280 280 280 280 280 280 281 282 282 283 283 283 283 283 284 284 284 284 283 283 281 281 281 282 281 281 280 280 279 278 278 278 279 280 281 282 282 283 283 283 284 284 285 285 285 286 286 286 285 285 285 285 285 285 285 285 285 286 286 286 286 286 286 286 287 287 287 287
280 280 280 280 279 279 279 278 279 279 280 280 280 280 280 280 280 280 280 280 280 280 280 280 280 280 281 281 282 282 282 282 282 283 282 282 282 282 281 281 281 281 282 281 281 280 279 278 278 278 278 279 280 281 282 282 282 282 283 284 284 285 285 286 286 286 285 285 285 285 285 285 285 285 285 285 285 285 285 285 285 286 286 286 286 286
280 279 279 279 279 279 279 279 279 280 280 279 279 279 279 280 280 280 280 280 280 281 281 280 280 280 280 281 281 281 282 282 282 282 282 282 281 282 282 281 281 281 281 281 281 280 279 279 278 278 278 279 279 280 280 281 281 282 282 282 282 283 285 285 285 285 285 285 284 284 284 284 285 285 284 284 284 284 284 285 285 285 286 285 285 285
279 279 279 279 279 279 279 280 280 280 279 279 279 279 279 279 279 279 280 280 280 281 281 281 280 280 281 281 281 281 282 282 282 282 282 281 281 281 281 281 281 281 281 281 280 280 280 279 279 279 279 279 279 279 279 280 281 282 282 281 281 282 284 284 285 285 285 285 285 284 284 284 284 284 284 284 284 285 285 285 285 285 285 285 285 284
279 279 279 279 279 279 279 279 279 279 279 278 278 278 278 279 279 279 279 279 279 280 280 280 280 280 280 281 281 282 282 282 282 282 282 281 281 281 281 281 282 282 281 280 280 280 280 279 279 279 279 279 279 279 279 280 281 282 282 281 282 282 283 284 284 285 284 284 284 284 284 284 283 283 284 284 284 284 285 285 285 285 285 285 285 285
278 278 279 279 279 279 279 279 279 279 278 278 278 278 278 279 279 279 278 278 279 279 279 279 279 279 279 280 281 282 282 282 283 282 282 281 281 281 281 282 282 282 281 280 279 279 280 280 280 279 280 280 279 279 279 279 280 281 282 282 282 281 281 282 283 284 284 284 284 284 284 283 283 283 283 284 284 284 285 285 285 285 285 285 285 285
278 278 279 279 279 279 279 279 279 278 278 278 278 278 279 279 279 278 278 278 278 279 279 279 279 279 279 279 280 281 282 283 283 282 282 282 282 281 282 282 282 282 282 280 279 279 279 279 280 280 280 280 280 279 279 279 279 280 281 282 282 281 280 281 282 283 283 283 283 283 283 283 283 284 284 283 284 284 284 284 284 285 285 285 285 285
278 279 279 279 279 279 279 279 279 279 278 278 278 278 278 279 279 278 278 278 278 278 279 279 279 279 278 279 280 281 282 282 282 282 282 282 282 282 282 282 282 282 282 281 280 280 279 279 279 280 280 280 280 279 279 279 279 280 281 281 282 282 282 282 283 282 282 282 282 283 283 284 283 283 283 283 283 283 283 284 284 284 285 285 285 285
278 278 279 279 279 279 279 279 279 279 279 278 278 278 278 278 278 278 278 278 278 278 279 279 278 278 278 279 280 280 281 281 281 281 282 282 282 282 282 282 282 282 282 281 281 281 280 280 280 280 280 279 279 279 279 279 279 280 280 281 282 282 282 282 282 282 282 282 282 283 283 284 283 282 281 282 282 283 283 284 284 284 284 285 285 285
278 278 278 278 278 278 279 279 279 278 278 278 278 278 278 278 278 278 278 278 278 278 278 278 278 278 278 279 279 279 279 279 280 280 281 281 282 282 282 282 282 282 282 282 282 281 281 281 281 280 279 278 278 278 279 280 280 280 280 281 281 281 281 281 282 282 283 283 282 283 283 283 282 281 281 281 282 282 283 284 284 285 285 285 285 285
277 278 278 278 278 278 278 278 278 278 278 278 278 278 278 278 278 277 277 278 278 278 278 278 278 278 278 279 279 279 279 279 279 279 280 280 281 281 282 282 282 282 282 282 282 282 282 282 282 281 280 279 278 278 279 280 280 281 281 281 281 281 280 281 282 282 283 283 283 283 283 282 282 281 281 281 281 281 282 283 284 285 285 285 285 285
277 278 278 278 278 278 278 278 278 278 277 277 277 278 278 278 278 277 277 277 277 277 277 277 277 278 278 278 279 279 279 279 279 279 279 280 280 281 281 281 281 281 281 281 282 282 282 282 282 282 282 281 279 279 279 280 280 281 281 281 281 281 280 281 282 282 283 283 283 283 283 283 282 282 281 281 280 280 281 282 283 284 285 285 285 285
277 277 278 278 278 277 278 278 278 278 277 277 277 277 278 278 278 277 277 277 277 277 277 277 277 277 277 278 278 279 278 278 278 278 279 280 280 280 280 280 280 280 280 280 280 280 281 281 282 283 284 283 282 281 280 280 280 281 281 281 281 281 281 281 282 282 283 283 283 283 283 283 283 283 282 281 280 280 280 281 282 283 284 285 285 285
277 277 277 277 277 277 277 277 277 277 277 277 277 277 277 278 277 277 277 277 277 277 277 277 277 277 277 278 278 278 278 278 278 278 278 279 280 280 280 279 279 279 278 278 278 278 279 279 279 281 283 284 284 283 281 281 281 281 280 281 281 281 281 281 282 283 283 283 283 283 283 283 283 282 282 281 280 279 279 280 281 282 283 284 285 285
Wind_Speed
1 1 1 1 2 2 2 3 3 2 2 2 2 3 3 4 5 6 8 7 7 7 6 6 6 6 7 8 8 8 7 7 6 5 5 5 4 4 4 3 3 2 2 1 1 1 2 3 3 3 3 3 3 3 4 4 5 6 7 8 9 10 11 12 13 13 13 13 13 13 13 12 12 11 10 9 9 9 9 9 10 10 11 11 11 11
1 1 1 1 2 2 2 2 2 2 2 2 2 3 3 4 4 4 5 5 6 5 5 5 5 5 5 6 7 7 7 6 6 5 5 4 4 3 3 2 2 1 1 1 1 2 3 3 4 3 3 3 3 4 4 5 6 7 8 9 10 11 11 12 12 13 13 13 13 12 12 12 11 11 10 10 10 10 10 10 11 11 11 11 12 12
2 1 1 1 1 1 2 2 2 2 3 3 3 3 3 4 4 3 3 3 4 4 4 3 3 4 4 4 5 6 6 5 5 5 4 4 3 3 2 2 1 1 1 2 3 3 4 4 4 4 4 4 4 4 5 6 6 7 8 9 10 11 11 12 12 12 12 12 11 11 11 11 10 10 10 10 10 10 11 11 11 11 11 12 12 12
2 2 2 1 1 1 1 1 2 2 2 2 3 3 4 3 3 3 2 3 3 3 3 3 3 3 3 3 4 4 5 4 4 4 3 3 3 2 2 2 2 2 3 3 4 4 4 4 4 4 4 4 4 5 5 6 7 8 8 9 10 11 11 12 12 11 11 11 10 10 10 9 9 9 9 10 10 10 11 11 11 11 11 11 12 12
2 2 1 1 1 1 1 1 1 1 2 2 2 2 3 2 2 2 2 2 2 2 2 2 2 2 2 2 2 3 3 3 3 3 3 3 3 2 2 2 3 3 3 4 4 4 4 4 4 4 4 4 5 5 6 7 8 8 9 10 10 11 12 12 12 11 10 10 9 9 9 9 9 9 9 10 10 10 11 11 11 11 11 11 11 11
2 2 1 1 1 1 1 1 1 1 1 1 1 2 2 1 1 1 1 1 1 1 1 1 1 1 1 1 2 2 2 3 3 3 3 3 3 3 3 3 3 3 3 3 3 3 3 3 3 3 4 5 6 6 7 8 9 9 10 10 11 12 12 12 12 11 11 10 10 9 9 9 9 9 10 10 10 10 11 11 11 12 12 12 11 11
2 2 1 1 1 1 1 1 1 1 1 1 0 0 1 1 1 1 1 1 1 1 1 1 0 0 0 1 1 1 1 1 2 2 2 3 3 3 3 3 3 3 2 2 2 2 2 3 3 4 5 6 7 8 9 9 10 11 11 12 12 12 13 13 12 12 11 11 10 10 10 10 10 10 10 10 11 11 11 12 12 12 12 12 12 12
2 2 1 1 1 1 1 1 1 1 0 0 0 0 1 1 1 1 1 1 1 1 1 1 1 1 1 1 1 0 0 1 1 0 1 0 1 1 1 1 2 2 2 2 2 3 3 4 5 6 7 7 8 9 10 11 11 12 12 12 13 13 13 13 13 13 12 11 11 11 10 10 10 10 11 11 11 11 12 12 12 12 12 12 12 12
3 2 2 1 1 1 1 1 1 1 1 1 1 1 1 1 1 1 1 1 1 0 0 1 1 1 1 1 0 1 1 2 2 2 1 1 1 1 1 1 1 1 2 3 3 4 5 5 6 7 8 9 9 10 11 12 12 13 13 13 13 13 13 13 13 13 13 12 12 11 11 11 11 11 11 12 12 12 12 12 12 12 12 12 12 12
3 2 2 1 1 1 1 1 1 1 0 0 1 1 1 1 1 1 2 2 2 1 0 1 1 1 0 1 1 1 1 1 2 2 3 2 2 2 1 1 1 2 3 3 4 5 5 6 7 8 9 9 10 11 11 12 12 13 13 13 14 13 13 13 13 13 13 12 12 12 12 12 12 12 12 12 12 12 12 12 12 12 12 12 12 12
2 2 2 2 1 1 1 1 1 1 1 1 1 1 1 1 1 1 1 1 2 2 1 0 1 1 2 1 1 1 1 1 1 1 0 1 2 2 1 1 1 2 3 3 4 5 6 6 7 8 9 10 10 11 11 12 12 13 13 13 13 13 13 13 13 13 13 12 12 12 12 12 12 12 12 12 12 12 12 12 11 11 11 11 12 12
2 2 2 2 2 1 1 1 1 1 2 2 2 2 2 1 1 2 2 1 0 1 1 1 1 1 1 2 2 2 2 2 1 1 1 1 1 1 1 1 2 2 3 4 4 5 6 7 7 8 9 9 10 10 11 11 11 12 12 12 12 12 12 12 12 12 12 12 12 12 12 12 12 12 12 12 12 12 12 11 11 11 11 11 11 12
2 2 1 1 1 2 1 2 2 2 2 1 1 1 1 2 1 1 2 1 1 1 1 1 0 1 1 1 1 2 2 2 2 1 2 2 2 2 2 2 2 3 3 4 4 5 6 6 7 8 8 8 9 9 10 10 10 11 11 11 11 11 11 12 12 12 12 12 12 12 12 12 12 12 12 12 11 11 11 11 11 11 11 11 11 11
2 2 2 2 2 2 2 2 2 2 1 1 1 2 2 2 1 1 2 1 1 1 1 2 1 1 2 1 1 1 2 2 2 2 2 2 2 1 2 2 3 3 3 4 4 5 5 6 6 6 7 8 8 8 8 9 9 10 10 10 11 11 11 11 11 11 12 12 12 12 11 11 11 11 11 11 11 11 11 11 11 11 11 11 11 11
2 2 2 2 2 2 2 1 1 1 1 2 2 1 1 0 0 1 2 1 0 0 1 2 2 2 2 2 1 1 2 2 2 2 2 2 1 1 1 2 3 3 3 4 4 5 5 5 5 5 6 6 7 7 7 7 8 9 9 9 10 10 10 11 11 11 11 11 11 11 11 11 11 11 11 11 11 11 11 11 11 11 11 11 11 12
2 2 2 2 2 2 2 1 1 1 2 2 2 1 0 0 0 0 1 1 1 1 1 2 2 2 2 2 2 1 2 2 2 2 3 2 2 1 1 2 3 4 4 4 5 5 5 4 4 5 5 5 6 6 6 7 8 9 9 9 9 9 10 10 10 10 10 10 10 10 10 10 10 10 11 11 11 11 11 11 11 11 12 12 12 12
1 1 1 1 2 2 2 2 1 2 2 2 1 1 1 1 2 1 1 1 1 1 1 2 2 2 1 2 2 1 2 2 2 2 3 3 2 1 1 2 3 4 4 5 5 5 4 4 4 4 4 4 5 6 7 8 8 9 9 9 9 9 9 9 9 9 10 10 10 10 10 10 10 11 11 11 11 11 11 11 12 12 12 12 13 13
1 1 1 1 2 2 2 2 2 2 2 2 2 2 2 2 2 1 1 1 1 1 1 1 2 2 2 0 2 2 2 2 2 3 3 4 2 1 1 1 3 4 5 5 5 4 4 4 4 4 4 5 6 7 8 9 9 9 9 9 9 9 9 9 9 9 10 10 10 10 10 11 11 11 11 11 11 11 12 12 12 12 13 13 13 13
1 1 1 1 2 2 2 2 2 2 1 2 2 2 2 1 1 0 0 1 1 2 2 2 2 2 3 2 1 2 1 2 2 3 4 5 3 1 1 1 2 4 5 5 4 4 4 4 4 5 6 7 8 9 9 10 10 10 10 10 10 10 10 10 10 10 10 10 11 11 11 11 11 11 11 11 11 12 12 12 12 13 13 13 13 13
2 1 1 1 2 2 2 2 2 1 2 2 1 1 1 1 1 0 0 1 1 1 2 2 2 2 2 2 1 2 2 2 2 3 3 4 4 2 1 1 2 4 4 4 4 4 4 4 4 6 7 8 9 9 10 10 11 11 11 11 11 11 10 10 10 11 11 11 11 11 11 11 11 11 11 11 12 12 12 12 12 13 13 13 13 13
2 2 2 1 1 1 1 2 2 3 3 2 1 0 0 0 1 1 0 1 1 2 2 2 2 2 2 2 2 2 2 2 3 3 3 3 3 3 0 1 2 4 5 4 4 3 3 4 4 5 6 7 9 9 10 10 11 11 11 11 11 11 11 11 11 11 11 11 11 11 11 11 11 11 11 11 11 12 12 12 12 13 13 13 13 13
1 2 2 1 1 1 2 3 3 3 3 1 0 1 0 1 1 1 1 1 1 2 2 2 2 2 2 3 2 1 1 1 2 2 2 3 3 3 0 0 2 3 4 4 3 3 3 4 4 5 6 7 8 9 9 10 10 10 10 11 11 11 11 11 10 10 10 10 10 10 11 11 11 11 11 11 11 11 12 12 12 13 13 13 14 14
2 2 3 2 2 2 3 3 3 3 2 0 1 1 2 2 2 2 2 2 2 2 3 3 2 2 2 3 3 2 1 1 1 2 2 3 3 2 1 0 2 3 4 3 3 3 4 4 4 5 6 7 7 8 8 8 9 9 9 9 10 9 9 9 9 9 9 9 9 9 9 9 10 10 10 10 11 11 11 12 12 13 13 14 14 15
2 3 3 3 3 3 2 2 2 2 1 0 1 1 1 1 2 2 2 2 3 3 3 3 3 3 3 4 3 3 2 2 1 2 2 3 3 2 1 1 2 3 4 3 4 4 5 5 5 4 4 4 4 5 6 6 7 7 7 7 7 7 7 7 7 7 7 8 8 8 8 9 9 9 10 10 11 11 12 12 13 13 14 14 15 15
3 3 3 3 3 3 2 2 2 2 1 1 0 0 1 0 1 1 2 2 3 3 3 3 4 4 3 3 3 2 3 2 2 2 2 2 3 3 2 2 2 3 4 4 4 5 5 5 4 4 3 2 2 3 4 4 4 4 4 4 5 5 5 6 6 6 7 7 8 8 8 9 9 10 10 11 11 12 12 13 13 13 14 14 15 15
4 4 4 4 4 4 4 4 3 2 1 1 0 0 1 1 2 2 3 3 3 3 4 4 4 3 2 2 2 2 2 3 2 2 2 2 3 3 2 1 2 3 4 4 4 5 5 5 4 3 2 0 0 1 2 2 3 3 3 3 4 5 5 6 6 7 7 8 8 8 9 9 10 10 11 11 12 12 13 13 13 13 14 14 15 15
7 7 7 6 6 6 6 5 5 4 4 4 3 2 2 2 3 3 4 3 3 3 4 4 4 3 3 2 2 1 1 2 2 2 2 2 3 3 2 1 2 3 4 4 4 5 5 4 3 2 1 0 1 1 1 2 3 3 4 4 5 6 6 7 7 7 8 8 8 9 9 10 10 11 11 11 12 12 12 12 13 13 13 13 13 13
7 7 6 6 6 5 5 5 5 5 6 6 6 5 4 3 4 4 4 3 3 3 3 4 4 3 3 2 2 1 1 1 2 2 2 2 2 2 2 2 2 3 4 4 4 4 4 3 3 2 1 1 1 1 2 2 3 4 5 5 6 6 6 7 7 7 7 8 8 9 9 10 10 10 11 11 11 12 12 12 12 12 12 11 9 9
5 5 5 5 4 4 4 4 4 5 5 6 7 6 5 4 4 4 4 3 3 3 4 4 4 3 3 3 2 2 2 1 2 2 2 2 2 2 2 2 2 3 3 3 3 3 3 2 1 1 1 1 2 2 2 3 4 4 5 5 6 6 6 6 6 7 7 8 8 9 9 10 10 11 11 11 11 12 12 12 12 11 10 9 8 8
1 1 1 2 2 2 3 3 4 4 5 5 5 5 4 4 4 4 4 4 3 4 4 4 4 4 3 3 3 2 2 1 2 3 2 2 2 2 2 2 2 2 2 3 3 2 1 1 1 1 1 2 2 3 3 3 3 4 4 5 5 5 5 5 6 7 8 8 9 9 10 10 11 11 11 11 11 12 12 12 11 10 7 7 7 7
1 1 1 1 1 2 2 3 3 4 4 4 4 4 3 3 3 4 4 3 3 4 4 4 4 4 3 3 2 2 1 2 3 3 2 2 2 2 2 2 2 2 2 2 2 2 2 0 1 1 1 2 2 3 3 3 3 3 3 3 3 4 4 5 6 7 8 9 9 10 10 11 11 11 11 11 12 12 12 12 11 9 7 7 7 7
1 1 2 2 2 2 2 2 3 3 3 3 3 3 2 3 3 3 3 3 3 4 4 4 4 4 3 3 3 2 1 1 3 3 2 1 2 2 2 2 2 2 1 1 2 2 2 1 1 1 1 2 3 3 3 3 3 3 3 3 3 3 4 5 6 7 7 8 9 10 10 11 11 11 11 11 11 11 11 11 10 9 7 7 7 7
2 3 3 3 3 3 3 3 3 3 3 3 2 2 2 2 2 2 3 3 3 3 4 4 4 4 4 4 4 3 2 0 2 4 3 2 2 2 2 2 2 2 2 2 2 2 2 2 2 2 3 3 3 3 3 3 3 3 3 3 3 3 4 4 5 6 6 7 7 8 9 9 10 10 10 11 11 11 11 11 11 10 8 7 7 7
4 4 4 4 4 4 4 4 3 3 3 3 2 2 2 2 2 2 2 2 2 3 3 4 4 4 4 3 3 3 3 1 2 4 3 2 2 2 2 2 2 2 2 2 2 2 3 3 3 3 3 3 3 3 3 3 3 3 3 3 3 3 4 4 4 5 5 5 5 6 6 7 8 8 9 9 10 10 10 11 11 11 10 8 7 7
4 5 5 5 4 4 4 4 4 3 3 3 2 2 2 2 2 2 2 2 2 2 2 3 3 3 3 3 3 3 3 1 2 3 3 2 2 2 2 2 2 2 2 2 2 2 2 3 4 4 3 3 3 3 3 2 2 2 3 3 3 4 4 4 4 4 5 5 5 5 5 5 5 6 7 7 8 9 10 10 11 11 12 11 10 8
4 5 5 4 4 4 4 4 4 3 3 2 2 2 2 2 2 1 1 1 1 1 2 3 3 3 3 4 3 3 3 1 1 2 3 3 2 2 2 2 2 3 2 3 3 3 3 3 4 4 4 4 3 3 2 2 2 2 3 3 4 4 4 4 4 4 4 5 5 5 5 5 5 5 6 7 8 9 10 11 11 12 13 13 13 11
5 5 5 4 4 3 4 3 3 3 3 2 2 2 2 2 1 1 1 1 1 2 2 3 3 4 4 4 4 4 4 3 3 2 3 3 3 3 3 3 3 3 3 3 3 3 3 3 4 4 4 4 3 3 2 2 2 3 3 3 4 4 4 4 4 4 5 5 5 5 5 5 5 6 6 7 8 9 10 11 11 12 12 13 14 14
5 5 5 4 3 3 3 3 3 2 2 2 2 2 2 1 1 1 1 1 2 2 3 3 4 5 6 6 6 6 6 6 6 5 4 4 4 4 4 3 4 4 3 3 3 3 3 3 4 4 3 3 4 3 3 3 3 3 3 4 4 4 4 4 4 4 4 5 5 5 5 5 5 5 6 6 6 6 7 7 8 9 10 11 12 14
5 5 4 4 3 3 3 3 2 2 2 1 1 1 1 2 2 2 2 2 3 3 4 4 4 4 5 6 7 8 8 8 7 6 5 4 4 4 5 4 4 4 4 4 4 4 4 4 4 4 4 4 4 4 4 3 4 4 4 4 4 4 4 4 4 4 4 5 5 5 5 5 5 5 5 5 5 5 5 5 6 6 7 7 8 10
5 5 4 4 3 3 2 2 2 1 1 0 0 1 2 3 3 3 3 4 4 4 5 5 5 5 5 6 7 8 8 7 7 7 6 5 5 5 5 5 5 4 4 4 4 4 4 4 5 5 5 4 4 4 4 4 4 5 5 4 4 3 3 4 4 4 5 5 5 5 5 5 5 5 5 5 5 5 5 5 5 5 5 5 5 6
5 4 4 3 3 2 2 2 1 1 1 1 2 3 3 3 3 3 3 4 4 4 4 4 5 5 5 6 7 7 8 7 8 7 7 6 6 6 6 5 5 5 4 4 4 4 5 5 5 6 5 5 5 6 6 5 6 6 6 5 5 5 5 5 5 5 5 5 5 5 5 5 5 5 5 5 5 5 5 5 6 6 6 5 5 5
5 4 3 2 2 2 2 2 2 2 2 2 3 3 3 3 3 3 3 3 3 3 3 3 3 4 5 5 6 6 7 7 7 7 7 7 7 7 7 6 5 5 4 4 5 5 5 6 6 6 6 5 5 5 6 6 6 6 6 6 6 6 6 5 5 4 4 4 4 4 5 5 5 5 6 6 6 6 6 6 7 7 7 6 6 6
4 4 3 2 2 2 3 3 3 3 3 3 4 4 4 3 3 3 3 3 3 3 3 3 3 3 4 4 4 4 5 6 6 7 7 7 7 7 7 7 6 5 4 4 5 5 6 6 6 6 6 6 6 6 7 6 6 6 6 6 6 5 4 3 3 3 4 4 4 5 5 5 5 5 6 6 6 6 6 7 8 9 8 7 7 7
4 3 3 3 3 3 3 3 3 3 3 4 4 3 3 3 3 3 3 3 3 3 3 3 3 3 4 5 4 4 3 5 5 6 6 7 7 7 7 7 7 6 6 5 4 4 5 6 6 6 6 6 6 6 7 7 7 6 6 6 6 6 5 4 4 4 5 5 5 5 5 5 6 6 6 6 6 6 6 7 7 7 8 8 7 7
3 3 3 3 3 3 4 4 4 3 4 3 3 3 3 3 3 3 3 3 3 3 3 3 3 3 4 4 4 3 3 3 4 4 5 6 7 8 7 7 6 6 6 6 6 5 5 5 5 5 5 5 6 7 7 7 7 7 7 7 7 7 7 6 6 6 6 6 6 6 6 6 6 6 6 6 6 6 6 7 7 7 7 7 7 8
3 3 3 3 3 4 4 4 4 3 3 3 3 3 3 3 3 3 4 4 4 4 3 3 3 3 3 3 3 2 2 2 2 3 3 4 5 6 6 6 6 6 6 6 6 6 6 6 5 5 5 6 6 7 8 8 7 7 7 7 7 7 7 6 6 6 6 6 6 6 6 6 6 6 6 7 7 7 7 7 7 8 8 7 7 8
4 4 4 4 4 4 4 4 3 3 3 3 3 3 3 3 3 3 4 4 4 3 3 3 4 4 4 3 3 2 2 2 2 2 2 3 4 4 5 5 6 6 6 6 7 7 7 7 7 6 6 6 7 7 8 7 7 7 7 7 6 6 6 6 6 6 6 6 6 6 6 6 6 6 7 7 7 7 7 7 7 8 8 7 8 8
4 4 4 4 4 4 4 4 4 4 4 4 3 3 3 3 3 4 3 4 4 3 3 4 4 4 5 4 4 3 3 3 3 3 3 3 3 3 4 4 4 5 6 6 7 8 8 9 9 9 8 7 7 7 8 7 7 7 7 6 6 6 6 6 6 6 6 6 6 6 6 6 6 6 7 7 7 7 7 7 7 7 7 7 7 8
4 4 4 4 4 4 4 4 4 4 4 4 4 3 3 3 4 4 3 4 3 3 4 4 4 4 4 4 4 3 3 3 3 3 3 3 3 3 3 3 3 4 4 5 6 7 8 9 10 11 10 9 9 8 8 8 7 7 6 6 6 6 6 6 6 6 6 6 6 6 6 6 6 6 7 7 8 8 8 8 7 7 7 7 8 8
4 4 4 4 4 4 4 4 4 4 4 4 4 4 3 3 3 4 4 4 4 4 4 4 4 4 4 4 4 4 3 3 3 3 3 3 3 2 3 3 3 3 3 4 4 5 6 6 8 10 12 13 12 10 9 8 7 7 6 6 6 6 6 6 6 6 6 6 6 6 7 6 6 6 6 7 8 9 9 8 8 8 7 7 8 8
4 4 4 4 4 4 5 4 4 4 4 4 4 4 4 3 3 3 4 4 4 4 4 4 4 5 5 5 4 4 4 4 4 4 4 3 3 2 3 3 3 3 3 3 3 3 3 4 4 6 9 13 15 14 9 8 7 7 6 6 6 6 6 6 6 6 6 6 6 6 6 6 6 6 6 7 8 8 9 9 8 8 7 7 7 8
Wind_Direction
73 65 48 46 59 61 43 18 14 21 39 38 37 37 40 47 46 43 37 38 40 43 45 43 40 40 42 42 40 38 37 38 39 40 42 46 50 54 58 62 62 61 56 38 355 312 291 285 285 287 291 297 298 295 293 293 292 291 291 293 294 295 296 296 296 296 296 296 296 296 298 300 303 306 309 310 310 308 306 303 302 300 299 297 296 294
115 103 77 63 73 80 69 30 17 18 30 40 41 39 40 49 49 45 37 39 41 43 41 39 34 31 31 33 31 29 27 25 24 25 27 31 34 37 41 43 41 32 7 310 285 277 274 274 275 276 276 274 271 269 268 274 279 283 286 291 294 296 297 297 297 296 295 295 296 297 299 302 305 307 309 309 307 305 303 301 300 298 297 295 294 292
131 119 96 68 70 83 89 59 37 27 28 38 42 43 45 49 48 42 29 32 39 43 39 34 31 29 27 30 29 27 24 21 19 19 20 22 24 24 24 16 354 322 294 280 274 272 271 270 270 268 264 262 262 264 268 277 283 288 292 295 297 298 298 297 296 296 295 296 298 300 302 304 306 307 306 305 303 302 301 300 299 298 297 295 293 292
132 121 107 93 79 78 82 72 59 47 40 43 45 47 52 54 51 40 24 20 27 37 37 30 29 31 28 29 31 31 26 20 18 18 19 16 15 9 358 334 311 297 287 282 277 274 271 269 266 265 264 267 272 278 284 291 295 298 300 301 301 301 301 299 298 297 297 299 302 304 305 305 304 303 301 300 299 299 298 298 297 297 296 295 293 291
127 119 116 125 114 97 85 74 66 59 60 51 46 46 52 58 57 45 24 16 17 20 25 25 29 34 39 37 38 35 27 20 16 15 14 10 3 352 337 321 307 298 291 285 280 275 272 271 270 273 279 286 293 297 300 303 304 305 304 304 304 304 303 302 301 300 300 301 302 304 303 302 300 298 296 296 295 295 295 295 294 294 293 293 291 290
121 115 122 134 123 115 111 96 77 60 61 52 42 34 33 38 38 27 8 11 9 5 6 12 21 41 73 72 57 43 29 17 11 8 6 1 354 346 336 324 313 304 297 290 284 280 281 288 295 300 303 307 308 308 307 307 307 306 305 304 304 303 302 301 300 299 298 297 297 297 296 295 294 293 292 292 291 291 291 291 290 290 289 288 287 285
121 122 136 138 130 120 122 111 90 65 63 56 44 16 14 358 342 324 324 336 338 335 327 329 315 256 149 110 95 74 37 17 5 1 360 355 349 342 336 330 324 318 312 308 306 309 315 322 321 319 317 315 313 311 309 308 306 305 304 303 301 300 299 298 297 295 293 291 290 289 289 288 289 289 289 288 288 287 287 287 286 286 285 284 283 281
133 139 153 155 151 142 132 111 89 48 16 338 291 254 219 210 216 236 257 277 289 293 293 264 231 209 182 129 122 132 323 317 283 266 323 292 282 294 310 319 327 332 336 338 335 334 333 331 326 322 319 315 312 310 308 306 305 303 301 299 297 295 293 292 290 289 288 286 285 284 284 284 284 285 285 285 285 284 284 284 283 283 282 281 281 280
135 141 149 152 152 145 136 123 108 76 18 326 306 289 270 221 192 181 181 179 178 205 290 268 237 204 153 109 66 358 342 330 324 325 327 293 240 217 213 231 279 335 347 342 337 333 330 326 322 318 315 312 310 307 305 303 301 299 297 294 292 290 287 286 284 283 282 282 281 280 280 281 281 282 282 282 281 281 280 280 280 280 279 280 279 279
132 132 132 122 113 112 121 114 108 101 99 273 283 290 296 289 246 191 179 159 147 139 152 310 309 314 28 40 19 359 341 327 332 344 352 2 4 5 12 337 334 343 340 331 325 322 319 316 314 311 310 307 306 304 301 299 297 294 292 289 287 285 283 281 280 278 278 277 277 277 278 278 279 279 279 279 278 277 276 276 276 276 276 277 278 278
130 127 122 121 119 116 104 97 102 125 184 205 216 225 250 308 318 304 235 162 145 141 139 86 348 340 340 342 349 347 328 294 262 226 78 44 25 15 10 344 327 321 314 306 303 301 301 302 303 303 303 302 301 299 297 294 292 290 288 286 284 282 280 278 277 275 274 274 274 275 275 276 276 277 276 276 275 274 273 272 272 272 273 274 275 276
124 125 125 135 138 136 124 121 137 174 201 206 199 186 163 98 11 333 311 307 119 119 110 101 65 16 355 344 343 339 321 292 265 233 203 197 200 215 239 254 259 265 276 277 278 280 284 289 293 296 297 297 296 294 292 290 288 286 284 283 281 279 277 276 274 273 273 272 272 273 273 274 274 274 274 273 272 271 270 270 270 270 270 271 272 273
118 125 133 140 141 140 143 151 165 181 195 205 202 153 101 74 37 341 310 317 349 15 7 326 142 112 74 18 348 332 316 298 282 262 245 229 224 228 249 258 264 268 272 274 272 272 277 283 288 290 291 291 290 288 286 284 283 281 280 279 277 276 274 273 272 271 271 270 270 270 270 271 271 272 272 271 270 269 269 269 269 269 269 270 271 272
136 147 156 160 158 156 160 172 179 177 165 116 44 36 42 47 24 308 280 284 348 24 332 282 250 166 119 92 30 336 312 299 283 265 252 240 235 243 269 276 280 281 283 280 278 277 281 285 287 287 286 284 283 282 281 279 277 276 275 274 273 272 271 270 269 268 268 268 268 268 268 268 269 269 269 269 269 269 270 270 270 270 270 270 271 272
154 166 172 167 161 154 154 169 172 142 89 65 51 41 39 73 245 266 269 277 355 31 260 254 236 196 134 106 71 356 312 297 286 276 267 256 241 233 264 277 279 279 277 277 278 280 284 285 286 286 285 283 284 285 285 283 279 275 274 272 271 269 268 267 266 265 265 265 265 266 266 266 266 267 267 268 269 270 271 272 272 272 272 272 271 272
154 169 169 155 143 132 121 114 93 77 74 70 62 47 332 86 67 351 313 338 351 319 270 266 252 220 150 119 92 29 326 306 297 292 288 278 258 228 241 272 277 277 276 278 280 282 285 284 284 283 281 282 283 285 284 281 278 276 275 273 271 269 267 266 265 265 264 264 265 265 265 265 266 266 267 268 269 270 271 272 272 272 272 272 272 272
138 150 149 139 126 116 106 98 83 75 78 83 77 58 30 36 36 25 6 356 334 300 287 289 283 272 196 137 115 74 352 325 311 301 293 284 272 242 212 273 281 283 284 283 284 285 286 283 280 276 276 279 280 281 280 278 278 277 277 276 274 273 272 270 269 268 267 266 266 266 265 266 266 266 267 268 269 270 271 271 272 272 272 272 272 272
130 134 138 131 117 109 108 109 105 101 103 105 98 87 68 55 41 25 10 340 314 301 295 289 288 289 293 212 110 90 12 342 320 304 292 285 277 238 136 261 280 285 286 284 282 281 281 280 279 278 279 282 282 281 280 280 279 278 278 277 276 276 275 274 273 271 270 269 268 267 267 267 267 267 267 268 268 269 269 270 270 271 271 271 271 272
131 131 139 122 114 112 119 120 119 117 116 104 103 107 111 103 94 55 357 328 317 310 306 292 284 282 286 311 60 84 42 351 320 302 290 286 282 257 145 244 275 281 282 281 280 279 278 277 276 276 276 276 277 277 278 278 278 277 276 276 275 275 275 274 273 272 270 270 269 268 268 268 267 267 267 267 268 268 269 269 270 270 270 270 271 272
137 139 130 119 124 134 140 127 111 91 79 76 81 97 115 125 151 198 274 314 314 309 303 291 282 276 278 303 25 71 61 349 314 296 287 286 285 281 182 279 286 287 284 281 279 278 277 275 273 270 269 270 271 273 274 275 275 275 274 274 273 272 272 271 271 270 269 268 268 268 268 268 268 267 267 267 268 268 269 269 270 270 270 271 271 272
139 134 115 118 136 147 129 104 88 78 72 75 95 170 183 228 237 237 251 286 287 279 274 270 275 285 306 310 339 32 45 341 313 299 293 288 283 280 273 297 293 289 287 283 280 276 274 274 273 271 269 270 271 272 273 274 274 273 272 272 271 271 270 269 269 268 267 267 267 267 267 267 267 267 267 267 268 268 269 269 270 270 270 271 271 272
123 113 101 92 78 68 72 78 80 81 83 92 244 260 281 292 291 290 297 288 279 276 272 278 298 320 325 309 313 339 34 326 305 299 297 287 280 274 188 298 291 289 286 284 282 279 278 278 276 276 275 275 275 276 276 275 274 272 270 269 269 268 268 268 267 266 266 266 266 266 266 266 266 266 267 268 268 269 270 270 270 271 271 271 272 272
103 102 99 85 71 63 70 80 86 90 92 70 332 344 359 337 327 324 328 314 304 300 300 308 312 307 286 274 268 255 188 223 267 280 282 280 280 280 100 298 289 287 286 289 292 293 291 286 283 281 279 278 278 279 278 276 273 270 268 266 266 266 266 266 266 266 267 268 268 269 269 269 270 270 270 270 271 271 271 271 272 272 272 272 272 272
99 99 98 90 83 80 84 93 99 104 107 74 19 22 22 346 331 326 322 313 305 301 298 291 276 261 244 240 234 216 177 179 211 250 269 275 283 291 318 305 295 292 291 297 302 302 297 289 284 279 276 278 282 283 281 276 272 267 264 264 265 267 269 271 273 275 276 277 277 277 276 276 275 275 274 274 273 273 273 272 272 272 273 273 273 273
92 99 103 103 103 100 90 91 93 98 115 138 147 145 154 211 269 282 279 276 275 274 271 267 262 256 243 236 228 208 165 166 191 233 265 276 284 289 296 301 299 298 299 304 304 301 294 288 282 276 270 276 285 287 283 278 274 271 270 275 281 287 290 290 290 290 288 286 285 283 281 279 278 276 275 274 273 273 272 272 272 272 272 273 273 272
87 94 99 96 90 80 63 56 49 39 17 354 291 233 229 228 238 247 249 247 247 249 255 260 263 262 256 247 239 214 159 158 182 222 258 276 284 286 287 299 305 304 303 302 299 295 289 287 284 281 278 278 251 267 289 295 297 301 309 309 310 310 308 302 297 294 290 287 284 282 280 278 276 275 274 273 273 272 272 272 272 273 273 273 273 272
81 81 78 74 67 58 46 37 26 13 358 347 336 318 283 267 260 258 255 249 244 246 255 262 268 271 269 256 246 228 173 165 180 210 244 267 278 282 287 313 318 310 303 299 293 288 283 283 284 286 292 269 190 205 283 301 307 311 315 313 310 308 304 298 293 289 286 284 282 280 278 276 275 274 273 273 273 273 273 273 274 274 274 274 273 272
75 74 71 65 59 50 39 27 16 6 356 348 337 325 301 281 268 265 262 261 261 262 264 270 274 278 279 276 275 271 254 202 184 185 220 249 264 274 291 318 319 309 303 298 290 281 272 270 274 279 281 266 234 229 246 269 281 289 293 297 299 298 295 292 289 286 284 282 281 279 278 277 276 275 275 275 275 275 275 275 276 276 276 274 273 271
80 80 77 68 58 45 27 11 2 356 351 344 336 326 309 288 273 268 269 275 276 273 268 268 270 274 280 285 289 285 267 229 167 154 190 229 253 269 296 309 309 307 310 303 294 279 254 243 243 254 256 255 250 246 240 249 263 274 280 287 289 288 287 286 285 284 283 282 281 280 279 279 278 278 278 278 278 278 277 278 278 277 276 273 270 269
119 105 91 69 49 27 3 348 342 339 337 330 324 316 303 286 275 271 276 279 274 267 263 264 266 270 276 283 283 275 254 173 136 141 183 224 253 276 305 303 306 313 325 315 305 291 258 185 167 181 220 240 248 252 252 255 264 273 279 284 282 278 278 280 282 282 283 281 281 280 280 280 280 280 280 280 279 279 279 279 279 278 275 272 270 270
250 279 283 305 333 342 334 326 322 320 317 309 303 294 285 277 273 272 274 269 262 257 256 259 261 263 266 270 270 267 255 124 129 147 188 233 269 293 308 300 302 313 334 324 315 308 306 299 151 170 217 248 257 263 268 272 277 282 284 283 278 273 271 275 278 279 279 279 279 279 279 279 280 280 279 279 279 278 278 278 277 275 273 271 270 269
292 302 294 295 297 299 300 300 299 298 296 290 282 273 264 264 264 265 265 259 254 252 252 254 255 256 254 252 256 265 283 116 135 154 185 236 273 287 287 286 291 300 312 303 299 298 303 311 317 306 287 283 281 278 275 274 274 276 279 279 277 274 273 275 276 277 277 277 277 278 278 278 278 277 277 277 277 276 276 276 274 272 269 268 268 268
275 274 275 276 275 275 275 278 279 279 277 271 264 254 247 245 246 248 250 250 250 250 250 250 251 250 248 247 251 260 278 183 145 155 182 229 263 273 273 280 288 294 295 281 273 273 280 291 299 303 299 291 286 279 272 266 264 265 270 275 278 279 280 279 279 278 279 280 280 279 278 277 276 275 274 274 274 274 274 273 272 269 267 267 268 269
267 270 270 270 271 273 276 276 273 268 263 257 250 242 234 229 227 227 231 236 241 246 250 251 252 250 248 247 248 253 265 232 149 153 184 224 259 277 284 284 286 287 291 284 278 274 272 277 283 288 292 291 286 279 271 261 256 257 265 274 280 283 284 281 281 281 282 282 282 281 279 277 275 273 272 271 271 271 271 271 269 267 265 264 265 266
267 270 270 271 273 276 280 279 273 264 252 245 237 231 227 222 215 210 210 220 230 242 251 258 260 261 258 257 255 255 261 238 150 156 189 217 248 275 285 280 280 280 285 283 284 284 280 279 285 292 299 299 293 282 269 257 252 253 260 265 269 272 274 275 277 279 280 279 278 278 278 277 276 274 272 271 270 271 271 270 269 266 264 262 261 261
267 269 269 270 273 277 282 281 275 262 245 234 223 219 220 221 220 215 207 226 240 250 255 260 264 266 267 268 267 268 275 287 196 181 205 225 242 258 269 273 277 280 282 280 281 282 283 286 290 292 292 290 286 279 267 261 258 259 260 261 263 264 267 269 271 273 275 275 275 276 277 279 279 278 276 274 273 272 271 269 268 266 264 262 261 260
265 267 268 270 273 276 279 276 267 255 243 228 218 214 216 223 234 245 246 262 271 270 264 261 259 259 259 263 266 271 279 286 279 259 249 254 258 260 263 269 274 277 277 278 279 281 282 286 287 286 280 276 276 280 290 293 288 282 278 278 279 278 276 271 268 267 268 270 273 276 278 281 282 282 280 277 275 273 271 269 267 265 263 262 260 259
267 268 269 270 271 270 270 264 254 241 232 225 223 223 232 236 251 264 265 257 256 259 263 260 258 256 255 258 261 265 270 274 276 276 276 273 268 265 263 267 269 270 269 271 274 277 278 280 282 282 279 277 282 290 300 301 297 292 291 291 288 284 277 271 266 264 266 270 273 275 277 279 280 280 280 279 277 275 272 268 265 263 262 261 259 258
268 269 271 271 269 263 257 251 240 227 216 216 228 259 273 268 266 264 261 251 244 244 247 251 255 257 254 255 255 257 258 261 262 264 265 261 259 258 258 260 262 263 263 262 264 266 267 269 272 276 282 286 289 291 293 295 297 298 299 295 286 277 270 270 272 273 275 276 276 276 276 276 276 277 279 279 277 276 275 273 270 267 265 264 261 258
267 269 271 270 266 259 249 242 230 207 173 160 248 271 273 269 263 257 252 250 247 245 243 243 248 251 249 247 246 245 245 246 245 243 240 236 237 242 249 252 256 258 258 256 256 255 256 259 263 268 272 279 285 289 291 290 290 291 293 291 287 282 281 286 287 285 280 277 275 275 276 277 278 278 278 278 277 277 277 278 276 274 271 270 269 267
270 270 269 266 259 246 235 226 208 175 158 231 254 257 255 255 254 253 250 249 246 243 240 237 240 243 243 239 237 236 234 232 232 231 228 220 221 228 240 245 249 251 253 252 251 250 250 255 259 263 265 271 276 279 280 279 281 284 287 286 287 290 293 288 282 276 271 269 269 271 275 277 278 279 279 278 277 276 275 275 275 274 272 269 267 268
272 271 268 259 242 225 217 213 209 208 218 236 245 247 246 247 250 254 258 256 251 245 241 242 247 251 251 244 236 229 225 222 221 221 218 212 212 218 230 237 241 244 246 249 249 248 246 250 255 259 262 267 272 276 277 277 280 282 283 283 285 287 286 277 270 266 266 269 272 274 277 280 281 281 279 277 274 272 270 269 269 269 268 265 263 262
270 270 266 253 235 220 214 217 218 221 224 230 236 239 240 240 245 250 257 258 256 253 249 250 255 262 266 262 249 231 214 210 212 213 211 205 206 212 224 230 235 238 239 245 248 249 248 248 250 254 259 264 268 272 276 279 279 278 275 278 282 287 286 279 277 278 280 281 282 283 282 280 278 276 274 272 271 271 270 268 267 265 263 263 262 260
266 264 259 249 238 228 222 219 220 222 226 231 235 238 238 237 240 245 251 254 254 254 251 249 251 256 258 257 250 237 209 198 200 206 210 204 202 207 220 227 231 234 234 239 244 249 253 251 251 252 255 259 263 267 270 274 276 276 275 275 275 274 274 280 286 288 285 280 277 275 273 273 273 273 272 272 272 271 269 267 265 262 259 258 258 257
261 255 249 241 236 232 229 225 223 224 227 231 235 239 241 239 240 242 247 252 254 252 248 245 247 250 250 247 243 235 219 199 194 197 205 204 204 206 215 223 228 231 233 236 240 245 250 253 255 255 256 256 258 261 265 269 272 273 272 271 270 269 268 273 277 279 276 274 272 270 269 271 274 276 276 274 272 270 268 266 264 262 259 256 254 254
255 249 244 239 237 236 236 233 231 231 233 236 238 240 240 240 240 243 246 250 252 251 247 242 243 247 252 252 250 246 237 226 213 206 206 205 205 208 213 220 226 231 234 237 240 243 246 251 255 259 261 260 258 257 258 262 266 268 269 268 268 268 268 270 269 269 269 270 270 271 272 274 276 276 276 276 275 272 269 266 264 262 261 258 256 254
248 248 245 242 240 240 239 237 237 238 242 244 242 238 234 234 235 238 242 244 247 249 247 240 240 243 249 253 254 253 253 250 244 237 227 220 216 216 217 220 225 231 236 241 243 245 247 248 250 253 256 259 260 259 258 257 259 261 265 267 268 269 270 269 269 268 268 268 269 270 274 276 276 275 275 276 275 273 271 268 265 263 262 261 259 258
246 247 247 245 243 243 241 238 238 239 242 244 244 239 232 230 233 238 244 242 242 242 244 241 241 243 247 248 249 250 253 256 257 255 251 243 236 231 227 228 229 233 238 242 245 247 247 246 245 243 244 248 254 258 260 258 257 258 261 264 266 267 268 269 269 268 266 265 265 266 269 269 270 272 275 277 277 276 275 273 271 269 267 265 264 263
246 248 248 248 247 246 245 242 242 242 244 246 246 243 234 226 229 234 241 241 241 240 239 242 244 247 249 248 247 245 246 251 255 256 253 249 244 240 238 238 241 244 245 246 247 247 248 245 241 237 234 236 243 251 257 258 258 258 260 261 262 264 266 267 267 266 265 263 260 256 254 258 262 267 273 277 278 279 279 278 276 273 270 267 265 264
246 248 250 250 250 250 250 248 248 248 248 249 249 247 241 228 223 224 231 237 240 241 242 243 246 248 251 251 249 246 243 246 248 249 248 245 243 241 244 245 250 255 258 256 253 251 251 248 241 233 228 226 230 237 249 254 257 258 258 257 257 258 261 264 264 264 263 264 261 256 251 254 257 261 267 272 275 278 279 277 275 272 269 266 264 263
245 247 248 249 250 252 253 253 253 253 254 254 254 253 249 239 230 223 224 230 235 239 242 244 246 249 252 253 253 250 246 247 247 248 247 244 243 242 246 248 251 256 261 263 262 261 260 260 253 240 227 219 219 222 234 243 251 256 257 255 254 254 257 260 262 264 264 266 266 264 259 258 259 261 263 268 272 276 278 277 275 273 271 270 269 268